星链-3911 (STARLINK-3911 )

导读

STARLINK-3911是美国太空探索技术公司(SpaceX)星链卫星互联网项目的一颗卫星,于2022年5月13日发射入轨。星链计划旨在搭建覆盖全球的低轨卫星互联网星座,该卫星入轨后,承担着为全球范围内用户提供高速互联网接入服务的任务,是SpaceX星链星座组网过程中的重要组成部分。

基本信息
目录编号:
52565
目录名称:
STARLINK-3911
国际标识:
2022-051AJ
轨道中心:
EARTH
卫星名称:
星链-3911
卫星全名:
星链-3911 (STARLINK-3911 )
卫星状态:
在轨 (已飞行1496 天)
发射日期:
2022-05-13 UTC
国别 :
美国 (US)
星等 :
--
轨道信息
数据来源 国际轨道数据
星历时间: 2026-06-17T06:31:39+0800
15小时前
查看轨道信息
半长轴: 6917.931km
偏心率: 0.0001923
轨道倾角: 53.160°
近地点辐角 85.423°
升交点赤经 33.481°
平近点角 274.698°
近地点: 538.463km
远地点: 541.125km
周期: 95.439分钟
每日圈数: 15.088235
详细信息
固有亮度:
5
最大亮度:
2.5
卫星平台:
Starlink v1.5
覆盖范围:
全球
运营商:
太空探索技术公司
运营商所在国:
美国
制造商(研发单位):
太空探索技术公司
制造商所在国:
美国
使用方式:
暂无
卫星简介
星链(Starlink)计划是由太空探索技术公司(SpaceX)提出的一个巨型低轨卫星互联网星座项目,计划在2019年至2024年间在太空搭建由约1.2万颗卫星组成的“星链”网络,其中1584颗将部署在地球上空550千米处的近地轨道,并从2020年开始工作。该卫星仍在工作。
2D轨道图
3D轨道图
轨道高度分析图
轨道倾角分析图
轨道综合分析图
查看轨道综合分析图